Lambertville, MI

1:04 PM EDT on October 01, 2016 (GMT -0400)
Toledo Suburban Airport

Weather History for KDUH - September, 2013

Change the Weather History Date:

Monday, September 23, 2013

  Actual Average (KTOL) Record (KTOL)
Temperature  
Mean Temperature 51 °F 61 °F  
Max Temperature 60 °F 73 °F 92 °F (2010)
Min Temperature 42 °F 50 °F 26 °F (1974)
Degree Days  
Heating Degree Days 14 5  
Month to date heating degree days 62  
Since 1 July heating degree days 76  
Cooling Degree Days 0 1  
Month to date cooling degree days 74  
Year to date cooling degree days 776  
Growing Degree Days 1 (Base 50)    
Moisture  
Dew Point 43 °F    
Average Humidity 74    
Maximum Humidity 93    
Minimum Humidity 52    
Precipitation  
Precipitation 0.00 in 0.09 in 1.22 in (2000)
Month to date precipitation 2.16  
Year to date precipitation 25.48  
Snow  
Snow 0.00 in 0.00 in - ()
Month to date snowfall 0.0  
Since 1 July snowfall 0.0  
Since 1 September snowfall 0.0  
Snow Depth -    
Sea Level Pressure  
Sea Level Pressure 30.14 in    
Wind  
Wind Speed 2 mph (ENE)    
Max Wind Speed 9 mph    
Max Gust Speed -    
Visibility 8 miles    
Events      
T = Trace of Precipitation, MM = Missing Value Source: NWS Daily Summary

Daily Weather History Graph

Daily Weather History Graph

Search for Another Location

Airport or City:

Trip Planner

Search our weather history database for the weather conditions in past years. The results will help you decide how hot, cold, wet, or windy it might be!

Date:

Astronomy

Sep. 23, 2013 Rise Set
Actual Time 7:23 AM EDT 7:29 PM EDT
Civil Twilight 6:55 AM EDT 7:57 PM EDT
Nautical Twilight 6:23 AM EDT 8:29 PM EDT
Astronomical Twilight 5:49 AM EDT 9:02 PM EDT
Moon 9:57 PM EDT (9/23) 11:45 AM EDT (9/23)
Length of Visible Light 13h 01m
Length of Day
12h 06m
Waning Gibbous, 81% of the Moon is Illuminated
Sep 23
Waning Gibbous
Sep 26
Last Quarter
Oct 4
New
Oct 11
First Quarter
Oct 18
Full

Hourly Weather History & Observations

Time (EDT) Temp. Windchill Dew Point Humidity Pressure Visibility Wind Dir Wind Speed Gust Speed Precip Events Conditions
12:15 AM 50.0 °F - 42.8 °F 76% 30.08 in 10.0 mi NE 3.5 mph - N/A   Clear
12:35 AM 48.2 °F - 42.8 °F 82% 30.08 in 10.0 mi Calm Calm - N/A   Clear
12:55 AM 48.2 °F - 42.8 °F 82% 30.08 in 10.0 mi Calm Calm - N/A   Clear
1:15 AM 46.4 °F - 42.8 °F 87% 30.08 in 10.0 mi Calm Calm - N/A   Clear
1:35 AM 44.6 °F - 41.0 °F 87% 30.09 in 10.0 mi Calm Calm - N/A   Clear
1:55 AM 44.6 °F - 41.0 °F 87% 30.09 in 10.0 mi Calm Calm - N/A   Clear
2:15 AM 44.6 °F - 41.0 °F 87% 30.10 in 10.0 mi Calm Calm - N/A   Clear
2:35 AM 44.6 °F - 41.0 °F 87% 30.10 in 10.0 mi Calm Calm - N/A   Clear
2:55 AM 42.8 °F - 41.0 °F 93% 30.10 in 10.0 mi Calm Calm - N/A   Clear
3:15 AM 44.6 °F - 41.0 °F 87% 30.10 in 10.0 mi Calm Calm - N/A   Clear
3:35 AM 42.8 °F - 39.2 °F 87% 30.10 in 10.0 mi Calm Calm - N/A   Scattered Clouds
3:55 AM 44.6 °F - 42.8 °F 93% 30.10 in 10.0 mi Calm Calm - N/A   Mostly Cloudy
4:15 AM 46.4 °F 45.2 °F 42.8 °F 87% 30.10 in 10.0 mi NNE 3.5 mph - N/A   Mostly Cloudy
4:35 AM 46.4 °F 45.2 °F 42.8 °F 87% 30.10 in 10.0 mi NNE 3.5 mph - N/A   Mostly Cloudy
4:55 AM 46.4 °F - 42.8 °F 87% 30.11 in 10.0 mi Calm Calm - N/A   Overcast
5:15 AM 48.2 °F - 44.6 °F 87% 30.11 in 10.0 mi Calm Calm - N/A   Overcast
5:35 AM 48.2 °F - 44.6 °F 87% 30.11 in 10.0 mi Calm Calm - N/A   Overcast
5:55 AM 48.2 °F - 44.6 °F 87% 30.11 in 10.0 mi NE 3.5 mph - N/A   Overcast
6:15 AM 50.0 °F - 44.6 °F 82% 30.11 in 7.0 mi NNE 3.5 mph - N/A   Overcast
6:35 AM 50.0 °F - 44.6 °F 82% 30.12 in 10.0 mi NNE 4.6 mph - N/A   Overcast
6:55 AM 50.0 °F - 44.6 °F 82% 30.12 in 7.0 mi NNE 3.5 mph - N/A   Overcast
7:15 AM 50.0 °F - 44.6 °F 82% 30.13 in 10.0 mi NE 4.6 mph - N/A   Overcast
7:35 AM 50.0 °F - 44.6 °F 82% 30.14 in 7.0 mi Calm Calm - N/A   Overcast
7:55 AM 50.0 °F - 44.6 °F 82% 30.15 in 5.0 mi NE 3.5 mph - N/A   Haze
8:15 AM 50.0 °F - 44.6 °F 82% 30.15 in 5.0 mi NNE 3.5 mph - N/A   Overcast
8:35 AM 50.0 °F - 44.6 °F 82% 30.16 in 10.0 mi ENE 3.5 mph - N/A   Overcast
8:55 AM 51.8 °F - 44.6 °F 76% 30.16 in 3.0 mi NE 4.6 mph - N/A   Haze
9:15 AM 51.8 °F - 44.6 °F 76% 30.17 in 2.5 mi NE 5.8 mph - N/A   Haze
9:35 AM 51.8 °F - 44.6 °F 76% 30.18 in 4.0 mi ENE 5.8 mph - N/A   Haze
9:55 AM 53.6 °F - 44.6 °F 72% 30.18 in 5.0 mi NE 4.6 mph - N/A   Haze
10:15 AM 55.4 °F - 46.4 °F 72% 30.18 in 5.0 mi ENE 3.5 mph - N/A   Haze
10:35 AM 55.4 °F - 44.6 °F 67% 30.18 in 4.0 mi ENE 5.8 mph - N/A   Haze
10:55 AM 57.2 °F - 44.6 °F 63% 30.18 in 2.5 mi NE 5.8 mph - N/A   Haze
11:15 AM 57.2 °F - 42.8 °F 59% 30.19 in 2.0 mi East 6.9 mph - N/A   Haze
11:35 AM 57.2 °F - 42.8 °F 59% 30.19 in 3.0 mi ESE 6.9 mph - N/A   Haze
11:55 AM 59.0 °F - 44.6 °F 59% 30.18 in 4.0 mi East 6.9 mph - N/A   Haze
12:15 PM 60.8 °F - 42.8 °F 52% 30.18 in 2.5 mi NE 9.2 mph - N/A   Haze
12:35 PM 59.0 °F - 42.8 °F 55% 30.18 in 2.5 mi East 6.9 mph - N/A   Haze
12:55 PM 59.0 °F - 42.8 °F 55% 30.18 in 2.5 mi SE 3.5 mph - N/A   Haze
1:15 PM 59.0 °F - 42.8 °F 55% 30.18 in 4.0 mi ESE 3.5 mph - N/A   Haze
1:35 PM 59.0 °F - 44.6 °F 59% 30.18 in 10.0 mi SSE 3.5 mph - N/A   Overcast
1:55 PM 59.0 °F - 42.8 °F 55% 30.18 in 5.0 mi ENE 4.6 mph - N/A   Haze
2:15 PM 59.0 °F - 42.8 °F 55% 30.18 in 5.0 mi ESE 3.5 mph - N/A   Haze
2:35 PM 59.0 °F - 42.8 °F 55% 30.18 in 10.0 mi East 4.6 mph - N/A   Overcast
2:55 PM 59.0 °F - 44.6 °F 59% 30.17 in 10.0 mi ENE 4.6 mph - N/A   Mostly Cloudy
3:15 PM 59.0 °F - 42.8 °F 55% 30.16 in 10.0 mi Calm Calm - N/A   Scattered Clouds
3:35 PM 59.0 °F - 42.8 °F 55% 30.16 in 10.0 mi East 4.6 mph - N/A   Mostly Cloudy
3:55 PM 60.8 °F - 42.8 °F 52% 30.15 in 10.0 mi Calm Calm - N/A   Mostly Cloudy
4:15 PM 59.0 °F - 42.8 °F 55% 30.15 in 10.0 mi ESE 4.6 mph - N/A   Mostly Cloudy
4:35 PM 60.8 °F - 42.8 °F 52% 30.15 in 10.0 mi SE 5.8 mph - N/A   Scattered Clouds
4:55 PM 60.8 °F - 42.8 °F 52% 30.15 in 10.0 mi ESE 3.5 mph - N/A   Scattered Clouds
5:15 PM 60.8 °F - 42.8 °F 52% 30.14 in 10.0 mi Calm Calm - N/A   Scattered Clouds
5:35 PM 60.8 °F - 42.8 °F 52% 30.15 in 10.0 mi ENE 5.8 mph - N/A   Scattered Clouds
5:55 PM 59.0 °F - 42.8 °F 55% 30.15 in 10.0 mi East 4.6 mph - N/A   Scattered Clouds
6:15 PM 59.0 °F - 42.8 °F 55% 30.14 in 10.0 mi East 5.8 mph - N/A   Clear
6:35 PM 59.0 °F - 42.8 °F 55% 30.14 in 10.0 mi East 4.6 mph - N/A   Clear
6:55 PM 57.2 °F - 44.6 °F 63% 30.14 in 10.0 mi East 4.6 mph - N/A   Clear
7:15 PM 55.4 °F - 44.6 °F 67% 30.14 in 10.0 mi Calm Calm - N/A   Clear
7:35 PM 53.6 °F - 46.4 °F 77% 30.13 in 7.0 mi Calm Calm - N/A   Clear
7:55 PM 51.8 °F - 46.4 °F 82% 30.13 in 5.0 mi Calm Calm - N/A   Haze
8:15 PM 50.0 °F - 44.6 °F 82% 30.14 in 10.0 mi Calm Calm - N/A   Clear
8:35 PM 48.2 °F - 44.6 °F 87% 30.14 in 10.0 mi Calm Calm - N/A   Clear
8:55 PM 46.4 °F - 44.6 °F 93% 30.14 in 10.0 mi Calm Calm - N/A   Clear
9:15 PM 46.4 °F - 44.6 °F 93% 30.14 in 10.0 mi Calm Calm - N/A   Scattered Clouds
9:35 PM 46.4 °F - 44.6 °F 93% 30.13 in 10.0 mi Calm Calm - N/A   Mostly Cloudy
9:55 PM 46.4 °F - 44.6 °F 93% 30.14 in 10.0 mi Calm Calm - N/A   Scattered Clouds
10:15 PM 46.4 °F - 44.6 °F 93% 30.14 in 10.0 mi Calm Calm - N/A   Clear
10:35 PM 46.4 °F - 42.8 °F 87% 30.15 in 7.0 mi Calm Calm - N/A   Clear
10:55 PM 44.6 °F - 42.8 °F 93% 30.15 in 7.0 mi Calm Calm - N/A   Clear
11:15 PM 44.6 °F - 42.8 °F 93% 30.15 in 7.0 mi Calm Calm - N/A   Clear
11:35 PM 44.6 °F - 42.8 °F 93% 30.14 in 5.0 mi Calm Calm - N/A   Clear
11:55 PM 44.6 °F - 41.0 °F 87% 30.14 in 10.0 mi Calm Calm - N/A   Clear